2019-093M

Last updated on Mon Jan 20 2020 00:02:06 GMT+0000 (Coordinated Universal Time)

1 44890U 19093M 20019.43018425 .00000120 00000-0 20188-4 0 9992 2 44890 97.9225 96.3934 0049071 187.0546 172.9981 14.85481632 4415
UTC large
Height (km)
Speed (km/s)
/
Latitude / Longitude
Inclination (degrees)
Orbital Period (minutes)
Azimuth
Elevation
Range (km)
Doppler Factor

Next 0 passes for location: London (51.5072 / 0.1276)

Sorry there are no passes over London.